This demonstration page uses our WeatherBlox Daily Observations layout. Learn more.

Left ArrowRight Arrow

39.01783, -85.05884

Hourly Observations for August 15, 2015

Temp ( °F °C ) Dew Point ( °F °C ) Humidity (%) Winds ( mph kmh ) Pressure ( in mb ) Visibility ( mi km ) Precip ( " mm )
1:52 am 01:52 Clear with Mist and Fog 64 17.8 63 17.2 96 96 N N/A 30.12 1020 6 9.65604 N/A
2:52 am 02:52 Clear 63 17.2 62 16.7 97 97 WSW 3 6 30.13 1020 10 16.0934 N/A
3:52 am 03:52 Clear 65 18.3 63 17.2 93 93 N N/A 30.11 1020 10 16.0934 N/A
4:52 am 04:52 Mostly Cloudy 64 17.8 62 16.7 93 93 N N/A 30.12 1020 10 16.0934 N/A
5:52 am 05:52 Cloudy 64 17.8 62 16.7 93 93 N N/A 30.12 1020 10 16.0934 N/A
6:52 am 06:52 Cloudy 63 17.2 62 16.7 97 97 S 5 7 30.11 1020 10 16.0934 N/A
6:57 am 06:57 Sunny with Mist and Fog 63 17 63 17 100 100 S 6 9 30.15 1021 1.75 2.816345 N/A
7:07 am 07:07 Cloudy 63 17 63 17 100 100 S 6 9 30.15 1021 10 16.0934 N/A
7:52 am 07:52 Mostly Cloudy 66 18.9 64 17.8 93 93 S 5 7 30.12 1020 10 16.0934 N/A
8:52 am 08:52 Mostly Cloudy 69 20.6 64 17.8 84 84 N N/A 30.13 1020 8 12.87472 N/A
9:52 am 09:52 Mostly Cloudy 73 22.8 65 18.3 76 76 VRB 3 6 30.14 1021 10 16.0934 N/A
10:52 am 10:52 Mostly Cloudy 72 22.2 66 18.9 82 82 WSW 3 6 30.16 1021 10 16.0934 N/A
11:52 am 11:52 Mostly Cloudy 73 22.8 66 18.9 79 79 W 6 9 30.16 1022 10 16.0934 N/A
12:52 pm 12:52 Partly Cloudy 80 26.7 67 19.4 64 64 WSW 7 11 30.15 1021 10 16.0934 N/A
1:52 pm 13:52 Partly Cloudy 83 28.3 64 17.8 53 53 NW 7 11 30.14 1021 10 16.0934 N/A
2:52 pm 14:52 Mostly Cloudy 81 27.2 67 19.4 62 62 NNW 9 15 30.13 1020 10 16.0934 N/A
3:52 pm 15:52 Mostly Cloudy 80 26.7 67 19.4 64 64 NNW 7 11 30.12 1020 10 16.0934 N/A
4:52 pm 16:52 Mostly Cloudy 80 26.7 63 17.2 56 56 WNW 8 13 30.11 1020 10 16.0934 N/A
5:52 pm 17:52 Mostly Cloudy 81 27.2 66 18.9 61 61 NNW 8 13 30.09 1019 10 16.0934 N/A
6:52 pm 18:52 Mostly Cloudy 80 26.7 63 17.2 56 56 WNW 5 7 30.1 1019 10 16.0934 N/A
7:52 pm 19:52 Mostly Cloudy 75 23.9 66 18.9 74 74 N N/A 30.1 1019 10 16.0934 N/A
8:52 pm 20:52 Mostly Cloudy 74 23.3 65 18.3 74 74 N N/A 30.1 1019 10 16.0934 N/A
9:52 pm 21:52 Mostly Cloudy 70 21.1 66 18.9 87 87 N N/A 30.13 1020 10 16.0934 N/A
10:52 pm 22:52 Cloudy 71 21.7 66 18.9 84 84 N N/A 30.14 1021 10 16.0934 N/A
11:52 pm 23:52 Clear 70 21.1 66 18.9 87 87 N N/A 30.13 1020 10 16.0934 N/A

Powered by AerisWeather